This is the latest recevied weather packets stored in our database for station/object ED3YAB-7. If no packets are shown the sender has not sent any weather packets the latest 10 day(s).
| Time | Temp. | Humidity | Pressure | Rain* | Wind** | Luminosity | Snow |
|---|---|---|---|---|---|---|---|
| 1777528964 | 15° C | 58% | 1020.4 hPa | - | - | - | - |
| 1777528955 | 15° C | 58% | 1020.4 hPa | - | - | - | - |
| 1777527755 | 13.89° C | 60% | 1020.3 hPa | - | - | - | - |
| 1777526558 | 13.89° C | 60% | 1020.2 hPa | - | - | - | - |
| 1777525352 | 13.89° C | 60% | 1019.8 hPa | - | - | - | - |
| 1777522955 | 13.89° C | 60% | 1019.5 hPa | - | - | - | - |
| 1777521750 | 13.33° C | 63% | 1019.4 hPa | - | - | - | - |
| 1777520552 | 13.33° C | 63% | 1019.7 hPa | - | - | - | - |
| 1777519360 | 13.33° C | 64% | 1019.5 hPa | - | - | - | - |
| 1777518151 | 12.78° C | 65% | 1019.5 hPa | - | - | - | - |
| 1777516951 | 12.78° C | 65% | 1019.5 hPa | - | - | - | - |
| 1777515751 | 13.89° C | 63% | 1019.4 hPa | - | - | - | - |
| 1777514551 | 12.78° C | 65% | 1019.4 hPa | - | - | - | - |
| 1777513351 | 13.33° C | 64% | 1019.4 hPa | - | - | - | - |
| 1777512151 | 14.44° C | 62% | 1019.5 hPa | - | - | - | - |
| 1777510950 | 14.44° C | 62% | 1019.7 hPa | - | - | - | - |
| 1777509750 | 15° C | 61% | 1019.6 hPa | - | - | - | - |
| 1777508550 | 15° C | 61% | 1019.7 hPa | - | - | - | - |
| 1777507350 | 15.56° C | 61% | 1019.7 hPa | - | - | - | - |
| 1777506152 | 16.11° C | 60% | 1019.6 hPa | - | - | - | - |
| 1777504950 | 16.11° C | 60% | 1019.6 hPa | - | - | - | - |
| 1777503750 | 16.11° C | 59% | 1019.5 hPa | - | - | - | - |
| 1777502549 | 16.67° C | 58% | 1019.5 hPa | - | - | - | - |
| 1777501349 | 17.22° C | 57% | 1019.7 hPa | - | - | - | - |
| 1777500149 | 16.67° C | 57% | 1019.6 hPa | - | - | - | - |
* Rain since midnight (hover to see other rain measurements)
** Current wind speed in m/s (hover to see current wind gust speed)